Time,TemperatureF,DewpointF,PressureIn,WindDirection,WindDirectionDegrees,WindSpeedMPH,WindSpeedGustMPH,Humidity,HourlyPrecipIn,Conditions,Clouds,dailyrainin,SoftwareType,DateUTC
2013-09-02 00:02:00,54.0,51.0,-100.00,NE,35,3.0,6.0,90,0.01,,,-99.99,,2013-09-02 08:02:00,
2013-09-02 00:11:00,54.0,51.0,-100.00,NE,35,3.0,6.0,90,0.01,,,-99.99,,2013-09-02 08:11:00,
2013-09-02 00:22:00,54.0,51.0,-100.00,NE,35,3.0,6.0,90,0.01,,,-99.99,,2013-09-02 08:22:00,
2013-09-02 00:30:00,54.0,51.0,-100.00,NNW,343,3.0,6.0,90,0.04,,,-99.99,,2013-09-02 08:30:00,
2013-09-02 00:52:00,54.0,51.0,-100.00,NNW,343,3.0,6.0,90,0.04,,,-99.99,,2013-09-02 08:52:00,
2013-09-02 01:01:00,54.0,51.0,-100.00,NNW,343,3.0,6.0,90,0.04,,,-99.99,,2013-09-02 09:01:00,
2013-09-02 01:12:00,54.0,51.0,-100.00,NNW,343,3.0,6.0,90,0.04,,,-99.99,,2013-09-02 09:12:00,
2013-09-02 01:22:00,54.0,51.0,-100.00,NNW,343,3.0,6.0,90,0.04,,,-99.99,,2013-09-02 09:22:00,
2013-09-02 01:30:00,54.0,51.0,-100.00,ENE,78,4.0,6.0,91,0.02,,,-99.99,,2013-09-02 09:30:00,
2013-09-02 01:53:00,54.0,51.0,-100.00,ENE,78,4.0,6.0,91,0.02,,,-99.99,,2013-09-02 09:53:00,
2013-09-02 02:03:00,54.0,51.0,-100.00,ENE,78,4.0,6.0,91,0.02,,,-99.99,,2013-09-02 10:03:00,
2013-09-02 02:13:00,54.0,51.0,-100.00,ENE,78,4.0,6.0,91,0.02,,,-99.99,,2013-09-02 10:13:00,
2013-09-02 02:22:00,54.0,51.0,-100.00,ENE,78,4.0,6.0,91,0.02,,,-99.99,,2013-09-02 10:22:00,
2013-09-02 02:30:00,53.0,52.0,-100.00,ENE,65,5.0,9.0,94,0.06,,,-99.99,,2013-09-02 10:30:00,
2013-09-02 02:53:00,53.0,52.0,-100.00,ENE,65,5.0,9.0,94,0.06,,,-99.99,,2013-09-02 10:53:00,
2013-09-02 03:03:00,53.0,52.0,-100.00,ENE,65,5.0,9.0,94,0.06,,,-99.99,,2013-09-02 11:03:00,
2013-09-02 03:11:00,53.0,52.0,-100.00,ENE,65,5.0,9.0,94,0.06,,,-99.99,,2013-09-02 11:11:00,
2013-09-02 03:22:00,53.0,52.0,-100.00,ENE,65,5.0,9.0,94,0.06,,,-99.99,,2013-09-02 11:22:00,
2013-09-02 03:30:00,53.0,52.0,-100.00,ENE,59,4.0,8.0,94,0.03,,,-99.99,,2013-09-02 11:30:00,
2013-09-02 03:52:00,53.0,52.0,-100.00,ENE,59,4.0,8.0,94,0.03,,,-99.99,,2013-09-02 11:52:00,
2013-09-02 04:02:00,53.0,52.0,-100.00,ENE,59,4.0,8.0,94,0.03,,,-99.99,,2013-09-02 12:02:00,
2013-09-02 04:12:00,53.0,52.0,-100.00,ENE,59,4.0,8.0,94,0.03,,,-99.99,,2013-09-02 12:12:00,
2013-09-02 04:21:00,53.0,52.0,-100.00,ENE,59,4.0,8.0,94,0.03,,,-99.99,,2013-09-02 12:21:00,
2013-09-02 04:30:00,58.0,48.0,-100.00,SSE,153,23.0,29.0,71,0.00,,,-99.99,,2013-09-02 12:30:00,
2013-09-02 04:52:00,58.0,48.0,-100.00,SSE,153,23.0,29.0,71,0.00,,,-99.99,,2013-09-02 12:52:00,
2013-09-02 05:02:00,58.0,48.0,-100.00,SSE,153,23.0,29.0,71,0.00,,,-99.99,,2013-09-02 13:02:00,
2013-09-02 05:11:00,58.0,48.0,-100.00,SSE,153,23.0,29.0,71,0.00,,,-99.99,,2013-09-02 13:11:00,
2013-09-02 05:21:00,58.0,48.0,-100.00,SSE,153,23.0,29.0,71,0.00,,,-99.99,,2013-09-02 13:21:00,
2013-09-02 05:30:00,58.0,48.0,-100.00,SE,140,24.0,32.0,68,0.00,,,-99.99,,2013-09-02 13:30:00,
2013-09-02 05:52:00,58.0,48.0,-100.00,SE,140,24.0,32.0,68,0.00,,,-99.99,,2013-09-02 13:52:00,
2013-09-02 06:02:00,58.0,48.0,-100.00,SE,140,24.0,32.0,68,0.00,,,-99.99,,2013-09-02 14:02:00,
2013-09-02 06:11:00,58.0,48.0,-100.00,SE,140,24.0,32.0,68,0.00,,,-99.99,,2013-09-02 14:11:00,
2013-09-02 06:22:00,58.0,48.0,-100.00,SE,140,24.0,32.0,68,0.00,,,-99.99,,2013-09-02 14:22:00,
2013-09-02 06:30:00,58.0,48.0,-100.00,SE,135,24.0,32.0,69,0.00,,,-99.99,,2013-09-02 14:30:00,
2013-09-02 06:52:00,58.0,48.0,-100.00,SE,135,24.0,32.0,69,0.00,,,-99.99,,2013-09-02 14:52:00,
2013-09-02 07:02:00,58.0,48.0,-100.00,SE,135,24.0,32.0,69,0.00,,,-99.99,,2013-09-02 15:02:00,
2013-09-02 07:12:00,58.0,48.0,-100.00,SE,135,24.0,32.0,69,0.00,,,-99.99,,2013-09-02 15:12:00,
2013-09-02 07:23:00,58.0,48.0,-100.00,SE,135,24.0,32.0,69,0.00,,,-99.99,,2013-09-02 15:23:00,
2013-09-02 07:30:00,59.0,47.0,-100.00,SE,142,29.0,39.0,64,0.00,,,-99.99,,2013-09-02 15:30:00,
2013-09-02 07:55:00,59.0,47.0,-100.00,SE,142,29.0,39.0,64,0.00,,,-99.99,,2013-09-02 15:55:00,
2013-09-02 08:04:00,59.0,47.0,-100.00,SE,142,29.0,39.0,64,0.00,,,-99.99,,2013-09-02 16:04:00,
2013-09-02 08:14:00,59.0,47.0,-100.00,SE,142,29.0,39.0,64,0.00,,,-99.99,,2013-09-02 16:14:00,
2013-09-02 08:24:00,59.0,47.0,-100.00,SE,142,29.0,39.0,64,0.00,,,-99.99,,2013-09-02 16:24:00,
2013-09-02 08:30:00,59.0,46.0,-100.00,SE,133,25.0,33.0,61,0.00,,,-99.99,,2013-09-02 16:30:00,
2013-09-02 08:53:00,59.0,46.0,-100.00,SE,133,25.0,33.0,61,0.00,,,-99.99,,2013-09-02 16:53:00,
2013-09-02 09:03:00,59.0,46.0,-100.00,SE,133,25.0,33.0,61,0.00,,,-99.99,,2013-09-02 17:03:00,
2013-09-02 09:12:00,59.0,46.0,-100.00,SE,133,25.0,33.0,61,0.00,,,-99.99,,2013-09-02 17:12:00,
2013-09-02 09:23:00,59.0,46.0,-100.00,SE,133,25.0,33.0,61,0.00,,,-99.99,,2013-09-02 17:23:00,
2013-09-02 09:30:00,59.0,45.0,-100.00,SE,130,19.0,24.0,59,0.00,,,-99.99,,2013-09-02 17:30:00,
2013-09-02 09:52:00,59.0,45.0,-100.00,SE,130,19.0,24.0,59,0.00,,,-99.99,,2013-09-02 17:52:00,
2013-09-02 10:02:00,59.0,45.0,-100.00,SE,130,19.0,24.0,59,0.00,,,-99.99,,2013-09-02 18:02:00,
2013-09-02 10:13:00,59.0,45.0,-100.00,SE,130,19.0,24.0,59,0.00,,,-99.99,,2013-09-02 18:13:00,
2013-09-02 10:22:00,59.0,45.0,-100.00,SE,130,19.0,24.0,59,0.00,,,-99.99,,2013-09-02 18:22:00,
2013-09-02 10:30:00,60.0,44.0,-100.00,ESE,122,30.0,40.0,55,0.00,,,-99.99,,2013-09-02 18:30:00,
2013-09-02 10:52:00,60.0,44.0,-100.00,ESE,122,30.0,40.0,55,0.00,,,-99.99,,2013-09-02 18:52:00,
2013-09-02 11:02:00,60.0,44.0,-100.00,ESE,122,30.0,40.0,55,0.00,,,-99.99,,2013-09-02 19:02:00,
2013-09-02 11:12:00,60.0,44.0,-100.00,ESE,122,30.0,40.0,55,0.00,,,-99.99,,2013-09-02 19:12:00,
2013-09-02 11:22:00,60.0,44.0,-100.00,ESE,122,30.0,40.0,55,0.00,,,-99.99,,2013-09-02 19:22:00,
2013-09-02 11:30:00,60.0,42.0,-100.00,SE,126,30.0,45.0,53,0.00,,,-99.99,,2013-09-02 19:30:00,
2013-09-02 11:52:00,60.0,42.0,-100.00,SE,126,30.0,45.0,53,0.00,,,-99.99,,2013-09-02 19:52:00,
2013-09-02 12:02:00,60.0,42.0,-100.00,SE,126,30.0,45.0,53,0.00,,,-99.99,,2013-09-02 20:02:00,
2013-09-02 12:12:00,60.0,42.0,-100.00,SE,126,30.0,45.0,53,0.00,,,-99.99,,2013-09-02 20:12:00,
2013-09-02 12:22:00,60.0,42.0,-100.00,SE,126,30.0,45.0,53,0.00,,,-99.99,,2013-09-02 20:22:00,
2013-09-02 12:30:00,59.0,42.0,-100.00,SE,126,26.0,40.0,53,0.00,,,-99.99,,2013-09-02 20:30:00,
2013-09-02 12:52:00,59.0,42.0,-100.00,SE,126,26.0,40.0,53,0.00,,,-99.99,,2013-09-02 20:52:00,
2013-09-02 13:02:00,59.0,42.0,-100.00,SE,126,26.0,40.0,53,0.00,,,-99.99,,2013-09-02 21:02:00,
2013-09-02 13:12:00,59.0,42.0,-100.00,SE,126,26.0,40.0,53,0.00,,,-99.99,,2013-09-02 21:12:00,
2013-09-02 13:23:00,59.0,42.0,-100.00,SE,126,26.0,40.0,53,0.00,,,-99.99,,2013-09-02 21:23:00,
2013-09-02 13:30:00,59.0,44.0,-100.00,ESE,114,29.0,37.0,56,0.00,,,-99.99,,2013-09-02 21:30:00,
2013-09-02 13:55:00,59.0,44.0,-100.00,ESE,114,29.0,37.0,56,0.00,,,-99.99,,2013-09-02 21:55:00,
2013-09-02 14:04:00,59.0,44.0,-100.00,ESE,114,29.0,37.0,56,0.00,,,-99.99,,2013-09-02 22:04:00,
2013-09-02 14:13:00,59.0,44.0,-100.00,ESE,114,29.0,37.0,56,0.00,,,-99.99,,2013-09-02 22:13:00,
2013-09-02 14:23:00,59.0,44.0,-100.00,ESE,114,29.0,37.0,56,0.00,,,-99.99,,2013-09-02 22:23:00,
2013-09-02 14:30:00,59.0,43.0,-100.00,SE,140,23.0,36.0,55,0.00,,,-99.99,,2013-09-02 22:30:00,
2013-09-02 14:54:00,59.0,43.0,-100.00,SE,140,23.0,36.0,55,0.00,,,-99.99,,2013-09-02 22:54:00,
2013-09-02 15:03:00,59.0,43.0,-100.00,SE,140,23.0,36.0,55,0.00,,,-99.99,,2013-09-02 23:03:00,
2013-09-02 15:12:00,59.0,43.0,-100.00,SE,140,23.0,36.0,55,0.00,,,-99.99,,2013-09-02 23:12:00,
2013-09-02 15:22:00,59.0,43.0,-100.00,SE,140,23.0,36.0,55,0.00,,,-99.99,,2013-09-02 23:22:00,
2013-09-02 15:30:00,58.0,44.0,-100.00,SE,130,29.0,36.0,60,0.00,,,-99.99,,2013-09-02 23:30:00,
2013-09-02 15:53:00,58.0,44.0,-100.00,SE,130,29.0,36.0,60,0.00,,,-99.99,,2013-09-02 23:53:00,
2013-09-02 16:01:00,58.0,44.0,-100.00,SE,130,29.0,36.0,60,0.00,,,-99.99,,2013-09-03 00:01:00,
2013-09-02 16:11:00,58.0,44.0,-100.00,SE,130,29.0,36.0,60,0.00,,,-99.99,,2013-09-03 00:11:00,
2013-09-02 16:21:00,58.0,44.0,-100.00,SE,130,29.0,36.0,60,0.00,,,-99.99,,2013-09-03 00:21:00,
2013-09-02 16:30:00,55.0,44.0,-100.00,SE,125,25.0,40.0,66,0.01,,,-99.99,,2013-09-03 00:30:00,
2013-09-02 16:52:00,55.0,44.0,-100.00,SE,125,25.0,40.0,66,0.01,,,-99.99,,2013-09-03 00:52:00,
2013-09-02 17:02:00,55.0,44.0,-100.00,SE,125,25.0,40.0,66,0.01,,,-99.99,,2013-09-03 01:02:00,
2013-09-02 17:11:00,55.0,44.0,-100.00,SE,125,25.0,40.0,66,0.01,,,-99.99,,2013-09-03 01:11:00,
2013-09-02 17:21:00,55.0,44.0,-100.00,SE,125,25.0,40.0,66,0.01,,,-99.99,,2013-09-03 01:21:00,
2013-09-02 17:30:00,54.0,46.0,-100.00,ESE,120,23.0,36.0,72,0.01,,,-99.99,,2013-09-03 01:30:00,
2013-09-02 17:52:00,54.0,46.0,-100.00,ESE,120,23.0,36.0,72,0.01,,,-99.99,,2013-09-03 01:52:00,
2013-09-02 18:02:00,54.0,46.0,-100.00,ESE,120,23.0,36.0,72,0.01,,,-99.99,,2013-09-03 02:02:00,
2013-09-02 18:12:00,54.0,46.0,-100.00,ESE,120,23.0,36.0,72,0.01,,,-99.99,,2013-09-03 02:12:00,
2013-09-02 18:21:00,54.0,46.0,-100.00,ESE,120,23.0,36.0,72,0.01,,,-99.99,,2013-09-03 02:21:00,
2013-09-02 18:30:00,54.0,45.0,-100.00,ESE,103,19.0,25.0,70,0.01,,,-99.99,,2013-09-03 02:30:00,
2013-09-02 18:52:00,54.0,45.0,-100.00,ESE,103,19.0,25.0,70,0.01,,,-99.99,,2013-09-03 02:52:00,
2013-09-02 19:02:00,54.0,45.0,-100.00,ESE,103,19.0,25.0,70,0.01,,,-99.99,,2013-09-03 03:02:00,
2013-09-02 19:11:00,54.0,45.0,-100.00,ESE,103,19.0,25.0,70,0.01,,,-99.99,,2013-09-03 03:11:00,
2013-09-02 19:23:00,54.0,45.0,-100.00,ESE,103,19.0,25.0,70,0.01,,,-99.99,,2013-09-03 03:23:00,
2013-09-02 19:30:00,55.0,44.0,-100.00,SSE,154,24.0,37.0,65,0.00,,,-99.99,,2013-09-03 03:30:00,
2013-09-02 19:55:00,55.0,44.0,-100.00,SSE,154,24.0,37.0,65,0.00,,,-99.99,,2013-09-03 03:55:00,
2013-09-02 20:04:00,55.0,44.0,-100.00,SSE,154,24.0,37.0,65,0.00,,,-99.99,,2013-09-03 04:04:00,
2013-09-02 20:13:00,55.0,44.0,-100.00,SSE,154,24.0,37.0,65,0.00,,,-99.99,,2013-09-03 04:13:00,
2013-09-02 20:24:00,55.0,44.0,-100.00,SSE,154,24.0,37.0,65,0.00,,,-99.99,,2013-09-03 04:24:00,
2013-09-02 20:30:00,56.0,44.0,-100.00,SSE,153,25.0,34.0,65,0.00,,,-99.99,,2013-09-03 04:30:00,
2013-09-02 20:53:00,56.0,44.0,-100.00,SSE,153,25.0,34.0,65,0.00,,,-99.99,,2013-09-03 04:53:00,
2013-09-02 21:03:00,56.0,44.0,-100.00,SSE,153,25.0,34.0,65,0.00,,,-99.99,,2013-09-03 05:03:00,
2013-09-02 21:12:00,56.0,44.0,-100.00,SSE,153,25.0,34.0,65,0.00,,,-99.99,,2013-09-03 05:12:00,
2013-09-02 21:23:00,56.0,44.0,-100.00,SSE,153,25.0,34.0,65,0.00,,,-99.99,,2013-09-03 05:23:00,
2013-09-02 21:30:00,55.0,45.0,-100.00,SSE,158,21.0,34.0,67,0.00,,,-99.99,,2013-09-03 05:30:00,
2013-09-02 21:52:00,55.0,45.0,-100.00,SSE,158,21.0,34.0,67,0.00,,,-99.99,,2013-09-03 05:52:00,
2013-09-02 22:02:00,55.0,45.0,-100.00,SSE,158,21.0,34.0,67,0.00,,,-99.99,,2013-09-03 06:02:00,
2013-09-02 22:12:00,55.0,45.0,-100.00,SSE,158,21.0,34.0,67,0.00,,,-99.99,,2013-09-03 06:12:00,
2013-09-02 22:22:00,55.0,45.0,-100.00,SSE,158,21.0,34.0,67,0.00,,,-99.99,,2013-09-03 06:22:00,
2013-09-02 22:30:00,55.0,45.0,-100.00,SSE,154,29.0,36.0,68,0.00,,,-99.99,,2013-09-03 06:30:00,
2013-09-02 22:52:00,55.0,45.0,-100.00,SSE,154,29.0,36.0,68,0.00,,,-99.99,,2013-09-03 06:52:00,
2013-09-02 23:02:00,55.0,45.0,-100.00,SSE,154,29.0,36.0,68,0.00,,,-99.99,,2013-09-03 07:02:00,
2013-09-02 23:12:00,55.0,45.0,-100.00,SSE,154,29.0,36.0,68,0.00,,,-99.99,,2013-09-03 07:12:00,
2013-09-02 23:22:00,55.0,45.0,-100.00,SSE,154,29.0,36.0,68,0.00,,,-99.99,,2013-09-03 07:22:00,
2013-09-02 23:30:00,54.0,46.0,-100.00,SSE,147,22.0,30.0,73,0.00,,,-99.99,,2013-09-03 07:30:00,
2013-09-02 23:52:00,54.0,46.0,-100.00,SSE,147,22.0,30.0,73,0.00,,,-99.99,,2013-09-03 07:52:00,